Tiempo Historia de KCGC - Marzo, 2012

Change the Weather History Date:

Miércoles, Marzo 14, 2012

  Actual Average (KGNV) Record (KGNV)
Temperature  
Temperatura media 68 ° F 62 ° F  
Temperatura máxima 82 ° F 74 ° F 92 ° F (1902)
Temperatura mínima 53 ° F 50 ° F 27 ° F (1926)
Degree Days  
Grados día de calefacción 0 5  
Month to date heating degree days 78  
Since 1 July heating degree days 1112  
Cooling Degree Days 2 2  
Month to date cooling degree days 22  
Year to date cooling degree days 54  
Growing Degree Days 18 (Base 50)    
Moisture  
Punto de rocío 59 ° F    
Average Humidity 77    
Maximum Humidity 100    
Minimum Humidity 48    
Precipitación  
Precipitación 0.00 pul 0.15 pul 1.00 pul (1923)
Month to date precipitation 2.08  
Year to date precipitation 8.59  
Nieve  
Nieve 0.00 pul 0.00 pul 0.00 pul ()
Month to date snowfall 0.0  
Since 1 July snowfall 0.0  
Grosos de nieve -    
Presión al nivel del mar  
Presión al nivel del mar 30.21 pul    
Viento  
Velocidad del viento 2 mph (ONO)    
Velocidad máxima del viento 12 mph    
Max Gust Speed 16 mph    
Visibilidad 10 Millas    
Eventos      
T = Trace of Precipitation, MM = Missing Value Source: NWS Daily Summary

Daily Weather History Graph

Daily Weather History Graph

Search for Another Location

Airport or City:

Trip Planner

Search our weather history database for the weather conditions in past years. The results will help you decide how hot, cold, wet, or windy it might be!

Date:

Astronomía

Mar. 14, 2012 Salida Puesta
Hora real 7:40 AM EDT 7:38 PM EDT
Crepúsculo civil 7:16 AM EDT 8:02 PM EDT
Crepúsculo náutico 6:49 AM EDT 8:29 PM EDT
Crepúsculo astronómico 6:22 AM EDT 8:57 PM EDT
Luna 1:41 AM EDT (3/14) 12:21 PM EDT (3/14)
Horas de luz 12h 45m
Horas de luz
11h 57m
Gibosa menguante, 54% of the Moon is Illuminated
Mar 14
Gibosa menguante
Mar 14
Cuarto menguante
Mar 22
Nueva
Mar 30
Cuarto creciente
Abr 6
Luna llena

Hourly Weather History & Observations

Hora (EDT) Temp. Índice de calor Punto de rocío Humedad Presión Visibilidad Wind Dir Velocidad del viento Velocidad de ráfagas Precip Eventos Condiciones
12:15 AM 62.6 ° F - 60.8 ° F 94% 30.24 pul 10.0 mi Sin viento Sin viento - N/A   Despejado
12:35 AM 60.8 ° F - 59.0 ° F 94% 30.24 pul 10.0 mi Sin viento Sin viento - N/A   Despejado
12:55 AM 60.8 ° F - 59.0 ° F 94% 30.23 pul 10.0 mi Sin viento Sin viento - N/A   Despejado
1:15 AM 60.8 ° F - 59.0 ° F 94% 30.23 pul 10.0 mi Sin viento Sin viento - N/A   Despejado
1:35 AM 60.8 ° F - 59.0 ° F 94% 30.22 pul 10.0 mi Sin viento Sin viento - N/A   Despejado
1:55 AM 59.0 ° F - 59.0 ° F 100% 30.22 pul 10.0 mi Sin viento Sin viento - N/A   Despejado
2:15 AM 59.0 ° F - 59.0 ° F 100% 30.22 pul 10.0 mi Sin viento Sin viento - N/A   Despejado
2:35 AM 59.0 ° F - 57.2 ° F 94% 30.21 pul 10.0 mi Sin viento Sin viento - N/A   Despejado
2:55 AM 59.0 ° F - 57.2 ° F 94% 30.21 pul 10.0 mi Sin viento Sin viento - N/A   Despejado
3:15 AM 59.0 ° F - 57.2 ° F 94% 30.20 pul 10.0 mi Sin viento Sin viento - N/A   Despejado
3:35 AM 59.0 ° F - 57.2 ° F 94% 30.19 pul 10.0 mi Sin viento Sin viento - N/A   Despejado
3:55 AM 59.0 ° F - 57.2 ° F 94% 30.19 pul 10.0 mi Sin viento Sin viento - N/A   Despejado
4:15 AM 57.2 ° F - 55.4 ° F 94% 30.19 pul 10.0 mi Sin viento Sin viento - N/A   Despejado
4:35 AM 55.4 ° F - 55.4 ° F 100% 30.18 pul 10.0 mi Sin viento Sin viento - N/A   Despejado
4:55 AM 55.4 ° F - 55.4 ° F 100% 30.18 pul 10.0 mi Sin viento Sin viento - N/A   Despejado
5:15 AM 55.4 ° F - 55.4 ° F 100% 30.18 pul 10.0 mi Sin viento Sin viento - N/A   Despejado
5:35 AM 55.4 ° F - 53.6 ° F 94% 30.19 pul 10.0 mi Sin viento Sin viento - N/A   Despejado
5:55 AM 55.4 ° F - 55.4 ° F 100% 30.19 pul 10.0 mi Sin viento Sin viento - N/A   Despejado
6:15 AM 55.4 ° F - 53.6 ° F 94% 30.20 pul 10.0 mi Sin viento Sin viento - N/A   Despejado
6:35 AM 53.6 ° F - 53.6 ° F 100% 30.21 pul 10.0 mi Sin viento Sin viento - N/A   Despejado
6:55 AM 55.4 ° F - 53.6 ° F 94% 30.21 pul 10.0 mi Sin viento Sin viento - N/A   Despejado
7:15 AM 55.4 ° F - 55.4 ° F 100% 30.22 pul 10.0 mi Sin viento Sin viento - N/A   Despejado
7:35 AM 55.4 ° F - 53.6 ° F 94% 30.23 pul 10.0 mi Sin viento Sin viento - N/A   Despejado
7:55 AM 53.6 ° F - 53.6 ° F 100% 30.24 pul 10.0 mi Sin viento Sin viento - N/A   Despejado
8:35 AM 59.0 ° F - 55.4 ° F 88% 30.25 pul 10.0 mi Sin viento Sin viento - N/A   Despejado
8:55 AM 60.8 ° F - 59.0 ° F 94% 30.26 pul 10.0 mi Sin viento Sin viento - N/A   Despejado
9:15 AM 62.6 ° F - 60.8 ° F 94% 30.27 pul 10.0 mi Sin viento Sin viento - N/A   Despejado
9:35 AM 66.2 ° F - 60.8 ° F 83% 30.27 pul 10.0 mi Sin viento Sin viento - N/A   Despejado
9:55 AM 69.8 ° F - 62.6 ° F 78% 30.27 pul 10.0 mi Este 3.5 mph - N/A   Despejado
10:15 AM 71.6 ° F - 60.8 ° F 69% 30.27 pul 10.0 mi Sin viento Sin viento - N/A   Despejado
10:35 AM 71.6 ° F - 60.8 ° F 69% 30.27 pul 10.0 mi Sin viento Sin viento - N/A   Despejado
10:55 AM 73.4 ° F - 60.8 ° F 65% 30.27 pul 10.0 mi Sin viento Sin viento - N/A   Despejado
11:15 AM 73.4 ° F - 60.8 ° F 65% 30.27 pul 10.0 mi Sin viento Sin viento - N/A   Despejado
11:35 AM 77.0 ° F - 60.8 ° F 57% 30.26 pul 10.0 mi Este 3.5 mph - N/A   Despejado
11:55 AM 78.8 ° F - 60.8 ° F 54% 30.26 pul 10.0 mi Sin viento Sin viento - N/A   Despejado
12:15 PM 77.0 ° F - 59.0 ° F 54% 30.26 pul 10.0 mi Este 5.8 mph - N/A   Despejado
12:35 PM 78.8 ° F - 60.8 ° F 54% 30.26 pul 10.0 mi ENE 5.8 mph - N/A   Despejado
12:55 PM 80.6 ° F 81.1 ° F 59.0 ° F 48% 30.25 pul 10.0 mi Este 8.1 mph - N/A   Despejado
1:15 PM 80.6 ° F 81.5 ° F 60.8 ° F 51% 30.24 pul 10.0 mi ENE 8.1 mph - N/A   Nubes dispersas
1:35 PM 80.6 ° F 81.1 ° F 59.0 ° F 48% 30.23 pul 10.0 mi Norte 4.6 mph - N/A   Nubes dispersas
1:55 PM 82.4 ° F 82.9 ° F 60.8 ° F 48% 30.22 pul 10.0 mi NE 9.2 mph - N/A   Muy nublado
2:15 PM 82.4 ° F 82.9 ° F 60.8 ° F 48% 30.21 pul 10.0 mi NO 6.9 mph - N/A   Nubes dispersas
2:35 PM 78.8 ° F - 62.6 ° F 57% 30.20 pul 10.0 mi Oeste 8.1 mph - N/A   Muy nublado
2:55 PM 78.8 ° F - 62.6 ° F 57% 30.19 pul 10.0 mi Oeste 6.9 mph - N/A   Muy nublado
3:15 PM 80.6 ° F 81.8 ° F 62.6 ° F 54% 30.18 pul 10.0 mi Oeste 9.2 mph - N/A   Muy nublado
3:35 PM 78.8 ° F - 62.6 ° F 57% 30.18 pul 10.0 mi Sin viento Sin viento - N/A   Nubes dispersas
3:55 PM 80.6 ° F 81.8 ° F 62.6 ° F 54% 30.17 pul 10.0 mi ONO 5.8 mph - N/A   Muy nublado
4:15 PM 78.8 ° F - 62.6 ° F 57% 30.17 pul 10.0 mi NO 5.8 mph - N/A   Muy nublado
4:35 PM 78.8 ° F - 62.6 ° F 57% 30.17 pul 10.0 mi Oeste 10.4 mph - N/A   Nubes dispersas
4:55 PM 77.0 ° F - 62.6 ° F 61% 30.16 pul 10.0 mi Oeste 8.1 mph - N/A   Nubes dispersas
5:15 PM 77.0 ° F - 62.6 ° F 61% 30.16 pul 10.0 mi Oeste 11.5 mph 16.1 mph N/A   Nubes dispersas
5:35 PM 77.0 ° F - 62.6 ° F 61% 30.15 pul 10.0 mi Oeste 8.1 mph - N/A   Muy nublado
5:55 PM 77.0 ° F - 62.6 ° F 61% 30.15 pul 10.0 mi Oeste 6.9 mph - N/A   Muy nublado
6:15 PM 75.2 ° F - 62.6 ° F 65% 30.16 pul 10.0 mi Oeste 8.1 mph - N/A   Despejado
6:35 PM 75.2 ° F - 62.6 ° F 65% 30.16 pul 10.0 mi ONO 5.8 mph - N/A   Nubes dispersas
6:55 PM 73.4 ° F - 62.6 ° F 69% 30.17 pul 10.0 mi Oeste 5.8 mph - N/A   Muy nublado
7:15 PM 73.4 ° F - 62.6 ° F 69% 30.17 pul 10.0 mi Oeste 4.6 mph - N/A   Nubes dispersas
7:35 PM 73.4 ° F - 62.6 ° F 69% 30.17 pul 10.0 mi Oeste 3.5 mph - N/A   Nubes dispersas
7:55 PM 71.6 ° F - 62.6 ° F 73% 30.18 pul 10.0 mi Sin viento Sin viento - N/A Tormenta Nubes dispersas
8:15 PM 71.6 ° F - 62.6 ° F 73% 30.19 pul 10.0 mi Norte 3.5 mph - N/A   Muy nublado
8:35 PM 71.6 ° F - 62.6 ° F 73% 30.20 pul 10.0 mi NNO 3.5 mph - N/A   Nublado
8:55 PM 71.6 ° F - 62.6 ° F 73% 30.20 pul 10.0 mi Sin viento Sin viento - N/A Lluvia Lluvia débil
9:15 PM 69.8 ° F - 64.4 ° F 83% 30.20 pul 10.0 mi Sin viento Sin viento - N/A   Nubes dispersas
9:35 PM 68.0 ° F - 62.6 ° F 83% 30.20 pul 10.0 mi Sin viento Sin viento - N/A   Nubes dispersas
9:55 PM 68.0 ° F - 62.6 ° F 83% 30.21 pul 10.0 mi Sin viento Sin viento - N/A   Despejado
10:15 PM 66.2 ° F - 62.6 ° F 88% 30.22 pul 10.0 mi Sin viento Sin viento - N/A   Despejado
10:55 PM 64.4 ° F - 62.6 ° F 94% 30.22 pul 10.0 mi Sin viento Sin viento - N/A   Despejado
11:15 PM 68.0 ° F - 62.6 ° F 83% 30.23 pul 10.0 mi Este 4.6 mph - N/A   Despejado
11:35 PM 68.0 ° F - 62.6 ° F 83% 30.24 pul 10.0 mi Sin viento Sin viento - N/A   Despejado